Location: Ciserano
(45.5833°N, 9.6000°E)
Time: 23:28:51
(UTC+00:00)

FALCON 9 DEB - Pass Details

Date: 16 June 2021
Orbit: 364 x 377 km, 53.0° (Epoch: 26 July)

Event Time Altitude Azimuth Distance (km) Brightness Sun altitude
Exits shadow 23:15:32 19° 281° (W) 986 5.0 -21.0°
Maximum altitude 23:17:19 36° 338° (NNW) 629 4.4 -21.0°
Drops below altitude 10° 23:20:17 10° 48° (NE) 1,415 6.2 -21.0°
Sets 23:22:26 0° 57° (ENE) 2,270 7.2 -21.0°
